Location: Mazerolles
(43.8749°N, 0.4368°W)
Time: 16:17:07
(UTC+00:00)

Daily predictions for brighter satellites

Satellite Brightness Start Highest point End
(mag) Time Altitude Azimuth Time Altitude Azimuth Time Altitude Azimuth
CARTOSAT-1 4.3 20:15:11 10° S 20:19:22 54° W 20:23:34 10° NNW
SL-24 R/B 4.4 20:15:44 10° SSE 20:20:47 86° WSW 20:25:11 10° NNW
CZ-4 R/B 3.8 20:19:13 10° SW 20:22:20 22° W 20:25:29 10° NW
Cosmos 2026 Rocket 4.0 20:16:34 10° S 20:22:46 88° E 20:28:55 10° N
Cosmos 1470 Rocket 3.6 20:18:30 10° N 20:22:51 63° E 20:27:07 10° SSE
Cosmos 1066 Rocket 4.3 20:17:21 10° S 20:23:10 77° E 20:28:58 10° NNE
OPS 6432 4.5 20:20:49 10° NW 20:23:52 65° SW 20:27:09 10° SSE
USA 234 3.3 20:18:04 10° NE 20:24:34 64° SE 20:31:02 10° SW
DELTA 2 DEB (DPAF) 4.5 20:21:11 10° N 20:25:23 66° WNW 20:29:33 10° SSW
IRIDIUM 104 4.4 20:22:26 10° N 20:27:39 67° E 20:32:50 10° SSE
Cosmos 1666 Rocket 4.3 20:26:02 10° NNW 20:30:15 54° W 20:34:29 10° S
Cosmos 2360 Rocket 4.3 20:27:13 10° N 20:30:34 16° NE 20:33:54 10° E
Cosmos 2285 Rocket 4.2 20:26:41 10° SSW 20:33:01 83° WNW 20:39:27 10° NNE
Cosmos 2333 Rocket 4.3 20:31:51 10° N 20:35:19 16° NE 20:38:48 10° E
Atlas Centaur 2 3.9 20:29:23 10° SW 20:36:14 30° S 20:43:06 10° ESE
IRIDIUM 114 4.3 20:31:34 10° N 20:36:49 81° E 20:42:02 10° S
ERS-1 Rocket 3.5 20:33:24 10° SE 20:38:10 46° ENE 20:42:58 10° N
SL-16 R/B 3.4 20:33:51 10° N 20:38:51 31° NE 20:43:48 10° ESE
Cosmos 1441 Rocket 4.1 20:35:50 10° N 20:39:03 30° ENE 20:41:54 12° SE
Resurs 01 Rocket 3.3 20:36:03 10° SSW 20:39:59 31° W 20:43:56 10° NNW
Cosmos 1763 Rocket 3.5 20:35:18 10° NNW 20:40:34 75° ENE 20:45:43 10° SSE
Cosmos 2369 3.8 20:34:57 10° NNW 20:40:43 89° ENE 20:46:27 10° SSE
Lacrosse 5 rocket 3.8 20:38:56 10° W 20:41:12 14° WSW 20:43:25 10° SSW
Cosmos 2082 Rocket 2.4 20:36:03 10° SSW 20:41:47 82° WNW 20:47:31 10° NNE
Spot 2 Rocket 4.3 20:38:14 10° SE 20:42:48 38° ENE 20:47:29 10° N
IRIDIUM 103 4.4 20:40:44 10° N 20:45:58 84° W 20:51:12 10° S
Cosmos 1933 Rocket 3.7 20:42:46 10° N 20:47:09 58° E 20:51:18 11° SSE
SPOT 5 2.6 20:43:05 10° SSE 20:47:23 86° E 20:51:46 10° NNW
Cosmos 1470 2.7 20:44:05 10° N 20:47:45 63° E 20:51:09 12° SSE
Cosmos 1908 3.3 20:51:24 10° N 20:54:56 51° ENE 20:57:41 15° SSE
Cosmos 1674 3.2 20:55:34 10° SSW 20:58:58 53° W 21:02:22 10° N
IRS-1C Rocket 4.1 20:54:09 10° SSE 20:59:25 88° WSW 21:04:42 10° NNW
ATLAS 2AS CENTAUR R/B 4.0 20:55:04 10° NNW 21:01:04 30° NE 21:06:51 10° E
KORONAS-FOTON 4.2 21:01:54 10° SSW 21:05:34 61° W 21:09:16 10° N
Ariane Rocket 3.2 21:03:07 15° SSE 21:07:14 60° ENE 21:12:15 10° N
Cosmos 468 Rocket 4.0 21:02:28 10° NNW 21:07:44 85° ENE 21:11:55 16° SSE
Cosmos 1842 4.0 21:05:32 10° SSW 21:09:05 50° W 21:12:40 10° N
COSMOS 2406 4.0 21:09:24 10° SW 21:15:04 57° WNW 21:20:44 10° NNE
SPOT 3 Rocket 3.6 21:12:14 17° SSE 21:16:11 66° ENE 21:21:18 10° N
Meteor 1-13 Rocket 4.3 21:11:55 10° S 21:17:45 84° E 21:23:29 10° NNE
SL-27 R/B 4.2 21:19:33 12° E 21:19:33 12° E 21:20:11 10° ENE
Cosmos 1553 Rocket 4.4 21:15:54 10° NNW 21:21:58 62° W 21:28:07 10° S
Cosmos 1980 Rocket 3.6 21:18:22 10° NW 21:23:20 32° WSW 21:28:16 10° SSW
Cosmos 2322 Rocket 3.0 21:18:13 10° NNW 21:23:35 42° ENE 21:27:27 18° ESE
S3M 4.0 21:17:49 10° N 21:24:13 75° E 21:29:06 18° SSE
Cosmos 1655 Rocket 4.2 21:22:57 16° SSE 21:28:00 57° E 21:34:16 10° NNE
SJ 16-02 2.8 21:28:53 18° ESE 21:29:32 19° E 21:32:33 10° NE
Cosmos 2278 3.7 21:26:51 10° NNW 21:32:37 87° WSW 21:36:25 22° SSE
Landsat 5 3.7 21:29:08 10° NNE 21:33:00 48° E 21:35:02 25° SSE
Landsat 4 3.5 21:32:54 25° S 21:34:45 73° WSW 21:38:12 10° NNW
Cosmos 1741 Rocket 4.3 21:31:50 19° S 21:35:22 48° ESE 21:40:27 10° NNE
USA 245 4.0 21:34:18 18° SSW 21:36:25 41° W 21:40:10 10° NNW
Tiangong -1.2 21:34:20 10° W 21:37:11 31° SSW 21:37:28 30° S
USA 281 4.2 21:32:45 14° ESE 21:37:40 36° NE 21:43:33 10° N
Cosmos 2266 Rocket 4.1 21:31:24 10° S 21:37:41 86° W 21:44:07 10° N
Cosmos 540 Rocket 4.2 21:32:45 10° NNW 21:37:41 47° WSW 21:41:30 16° S
Cosmos 1400 Rocket 2.7 21:35:14 18° S 21:38:02 89° WNW 21:41:55 10° N
MetOp-A 4.3 21:37:25 24° SE 21:40:27 58° ENE 21:45:37 10° N
Okean 3 4.3 21:39:26 26° SE 21:40:40 31° E 21:44:22 10° NNE
Terra 2.4 21:37:48 16° S 21:41:22 53° W 21:46:00 10° NNW
Cosmos 1733 Rocket 3.5 21:38:03 10° N 21:42:19 48° ENE 21:44:16 28° SE
Cosmos 968 Rocket 4.0 21:41:01 25° SSE 21:43:26 40° ESE 21:48:16 10° NE
Cosmos 2237 4.3 21:38:43 10° NNW 21:44:28 79° WSW 21:47:58 24° SSE
SL-4 R/B 4.0 21:42:46 10° WNW 21:46:11 28° N 21:49:47 10° NE
Cosmos 2228 Rocket 3.1 21:44:42 25° S 21:47:17 69° E 21:51:51 10° NNE
Cosmos 1315 Rocket 4.1 21:51:04 23° E 21:51:31 23° E 21:54:42 10° NE
Cosmos 2219 Rocket 3.5 21:47:12 10° N 21:52:11 30° NE 21:55:47 16° ESE
ATLAS CENTAUR R/B 1.1 21:52:14 43° SSE 21:52:45 47° ESE 21:56:11 10° NE
SeaSat 1 3.8 21:51:57 15° SSW 21:55:13 31° WSW 21:59:34 10° NW
Meteor 2-10 Rocket 3.7 21:51:47 10° NNW 21:57:26 81° W 22:00:34 26° S
Cosmos 1953 3.7 21:56:53 10° NNE 22:00:02 24° ENE 22:00:51 22° E
H-2A R/B 4.4 21:59:30 15° E 22:01:11 19° ENE 22:04:10 10° NNE
Cosmos 1455 3.7 22:00:32 10° NNE 22:03:15 21° ENE 22:03:41 20° E
Meteor 1-23 Rocket 4.5 21:58:52 14° SSW 22:03:48 68° WNW 22:09:31 10° N
Okean 1-7 3.7 22:04:58 33° ESE 22:05:55 38° E 22:09:55 10° NNE
USA 234 4.3 22:01:14 10° NE 22:07:26 48° NNW 22:13:39 10° W
BREEZE-M DEB (TANK) 2.3 22:06:02 10° WNW 22:08:09 66° NNE 22:09:09 37° E
CZ-2C R/B 4.1 22:06:26 10° NNE 22:10:38 42° E 22:11:36 37° SE
Cosmos 2315 Rocket 4.3 22:08:55 10° NNW 22:15:14 67° W 22:19:12 24° S
Cosmos 2360 Rocket 2.2 22:09:48 10° NNW 22:15:31 80° ENE 22:18:06 34° SSE
Cosmos 841 Rocket 4.1 22:13:10 10° NNW 22:18:13 48° WSW 22:20:45 27° SSW
SL-14 R/B 4.1 22:17:25 23° SW 22:19:24 44° WNW 22:23:03 10° N
RESURS DK-1 2.5 22:16:07 10° NNW 22:20:08 60° WSW 22:21:10 44° SSW
Cosmos 2333 Rocket 2.2 22:14:46 10° NNW 22:20:33 80° ENE 22:23:08 35° SSE
SL-16 R/B 2.9 22:17:43 10° NW 22:23:05 44° WSW 22:25:47 26° SSW
Atlas Centaur 2 3.7 22:17:46 10° WSW 22:24:38 29° S 22:25:49 28° S
Cosmos 1300 3.6 22:22:37 10° NNW 22:25:57 37° W 22:26:54 31° SW
Aureole 3 3.6 22:30:50 40° SW 22:32:00 64° WNW 22:36:25 10° N
Cosmos 1703 Rocket 3.9 22:32:44 44° SE 22:33:30 49° E 22:37:49 10° NNE
Cosmos 1833 4.1 22:30:08 24° SSW 22:33:39 89° WNW 22:39:18 10° NNE
Cosmos 1862 Rocket 4.2 22:32:47 26° SW 22:34:56 50° WNW 22:39:15 10° N
Cosmos 1346 Rocket 3.6 22:31:59 10° NNW 22:35:36 40° W 22:36:35 33° SW
Meteor 1-4 Rocket 2.6 22:41:49 52° WNW 22:41:49 52° WNW 22:44:39 10° N
Cosmos 1932 4.4 22:38:31 25° SSW 22:42:25 77° ESE 22:48:43 10° NE
Cosmos 839 Rocket 4.0 22:38:01 10° NNW 22:44:56 82° ENE 22:47:43 36° SE
Meteor 1-16 Rocket 4.4 22:39:14 10° NNW 22:45:08 72° W 22:47:38 36° S
Cosmos 2322 4.4 22:41:28 10° NNW 22:46:55 45° ENE 22:49:30 28° ESE
BlueWalker 3 4.4 22:50:03 11° ENE 22:50:03 11° ENE 22:50:15 10° ENE
Cosmos 2237 Rocket 4.4 22:43:47 10° N 22:47:36 18° NE 22:51:24 10° E
SL-27 R/B 4.1 22:50:57 20° W 22:51:30 21° WNW 22:53:44 10° N
ATLAS 2AS CENTAUR R/B 2.6 22:45:48 10° NW 22:52:36 74° WSW 22:55:16 38° SSE
Cosmos 2333 4.2 22:47:06 10° NNW 22:52:52 75° WSW 22:54:50 43° S
ARIANE 5 R/B 2.6 22:54:59 55° SSW 22:55:47 70° WSW 23:00:06 10° NNW
Okean 2 3.9 23:00:22 42° WSW 23:01:13 51° WNW 23:05:09 10° N
PSLV R/B 3.9 22:58:12 10° N 23:02:12 71° WNW 23:02:50 57° SW
Cosmos 2322 Rocket 3.4 23:02:31 10° NW 23:07:27 31° WSW 23:09:15 26° SW
Cosmos 1745 Rocket 4.0 23:05:11 41° S 23:07:31 75° E 23:13:53 10° N
SJ 16-02 2.4 23:05:35 25° WSW 23:07:33 40° WNW 23:11:39 10° N
Cosmos 1570 Rocket 4.2 23:02:25 10° NNW 23:07:46 67° ENE 23:09:22 44° SE
COSMOS 2455 3.4 23:08:59 36° SE 23:09:47 38° ESE 23:15:17 10° NE
Cosmos 2297 Rocket 3.4 23:13:10 25° ESE 23:13:35 26° ESE 23:18:10 10° NE
Nadezhda 1 Rocket 3.9 23:13:11 10° N 23:19:31 84° W 23:21:42 44° S
GP-B 3.8 23:16:53 10° N 23:21:07 46° W 23:22:05 39° WSW
Cosmos 1408 3.5 23:22:14 34° NNE 23:22:14 34° NNE 23:24:08 10° NNE
USA 281 3.6 23:19:37 36° SSW 23:21:58 50° WSW 23:28:21 10° NNW
SL-4 R/B 3.8 23:22:07 10° NW 23:25:45 31° NNE 23:29:36 10° ENE
COSMOS 2428 2.8 23:20:39 10° NNW 23:26:21 72° ENE 23:28:13 43° SE
Cosmos 1315 Rocket 4.5 23:26:20 22° WSW 23:27:32 26° WNW 23:30:57 10° NNW
ATLAS CENTAUR R/B 3.8 23:28:15 10° W 23:30:39 17° NW 23:33:06 10° N
GEOS 3 Rocket 4.0 23:26:26 10° NE 23:31:19 42° ESE 23:31:28 42° SE
Cosmos 1782 Rocket 3.5 23:29:38 10° NNW 23:33:55 64° W 23:34:15 62° WSW
CZ-3 Stage 3 4.1 23:10:03 10° W 23:34:37 37° SSW 23:37:06 33° S
Cosmos 1242 Rocket 4.2 23:35:32 21° NW 23:35:32 21° NW 23:37:12 10° NNW
Cosmos 1953 3.9 23:32:41 10° NW 23:35:46 23° W 23:35:58 23° W
H-2A R/B 3.1 23:35:29 44° WSW 23:35:47 45° W 23:39:55 10° NNW
Cosmos 2219 Rocket 2.7 23:30:54 10° NW 23:36:17 46° WSW 23:37:28 40° SW
Spot 2 4.4 23:35:40 58° S 23:36:41 80° WSW 23:41:47 10° NNW
Cosmos 1455 3.8 23:34:49 10° NW 23:37:24 22° W 23:37:24 22° W
Cosmos 2208 Rocket 3.9 23:33:17 10° NNW 23:38:30 89° W 23:39:34 58° SSE
Cosmos 371 Rocket 3.3 23:39:00 56° SE 23:39:21 58° ESE 23:44:05 10° NNE
Cosmos 158 Rocket 3.9 23:35:40 10° NNW 23:41:01 89° ENE 23:42:07 57° SSE
Spot 4 4.2 23:42:36 46° SW 23:43:16 49° W 23:47:57 10° NNW
Cosmos 836 Rocket 4.4 23:38:11 10° NNW 23:43:25 83° ENE 23:44:34 55° SSE
Cosmos 773 Rocket 4.4 23:43:15 10° NNW 23:48:20 56° ENE 23:49:51 40° ESE
Cosmos 2151 Rocket 4.5 23:45:15 10° N 23:49:21 37° ENE 23:50:03 34° E
ALOS 2 2.8 23:49:16 56° WSW 23:49:32 57° W 23:53:53 10° NNW
Cosmos 1503 Rocket 4.1 23:51:55 52° SE 23:52:46 59° ESE 23:58:00 10° NNE
